STARLINK-1352, 45536

Orbit data source: Space-Track

STARLINK-1352, 45536 is a payload satellite owned by SpaceX/Seattle (US) in LEO that was launched on Wed, 22 Apr 2020 UTC via an FALCON 9 launch vehicle from the Air Force Eastern Test Range (AFETR). Payloads include a variety of satellites, spacecraft, and rockets equipped with specific instruments for various scientific and technological missions. These include communications satellites like Starlink; space stations such as the ISS; scientific satellites like the Hubble; Earth observation satellites from companies like Planet Labs, Umbra, and HawkEye 360; GPS; miniature CubeSats for education and research; and military/defense satellites.

Loading next visibility...
STARLINK-1352 details
Identifier
45536, 2020-025F
Orbit
LEO
Last TLE update8 hours ago
Origin
Flag of USSpaceX/Seattle (US)
ManufacturerSpaceX/Seattle
MissionOperational Commercial Communications
Bus & MotorSTARLINK, Unknown motor
Mass260 kg wet, ~248 kg dry
Launch date (UTC)
2020-04-22 (5 years ago)
Launch vehicle
FALCON 9
Launch site
Air Force Eastern Test Range (AFETR)
Object type
Payload
Rocket body
Debris
Shape & HBRBox + 1 Pan, 8.86 m
Radar Cross Section13.562 m², Large (>1 m²)

Expand to show TLE details & history

TLE from 8 hours ago
0 STARLINK-1352
1 45536U 20025F   24361.14433691  .00031634  00000-0  20173-2 0  9991
2 45536  53.0534 274.9358 0003485 106.2536 253.8838 15.08459445258418
Epoch: 2024-12-26T03:27Z
Definitive object data (Epoch: 2024-12-26T03:27:50.709Z)
Latitude0.00004°
Longitude127.8466°
Altitude542.457 km
Speed7.592 km/s
True Right ascension18h 19m 44s
True Declination0° 00' 00"
Sunlit
Object was in daylight at TLE epoch
Visualization TLE readout
Latitude51.23966°
Longitude-165.02268°
Altitude544.867 km
Speed7.597 km/s
Apparent Right ascension22h 57m 59s
Apparent Declination8° 02' 24"
Sunlit
Object is in daylight
Visualization observer readout
Local Sidereal Time11:06:36
Azimuth2.872° NNE
Elevation-42.002°
Doppler factor1
Orbital elements
Apogee altitude543.589 km
Perigee altitude538.767 km
Semi-major axis6,919.315 km
Eccentricity0.0003485
Inclination53.0534°
RAAN274.9358°
Arg. of periapsis106.2536°
True anomaly253.84544°
Mean anomaly253.8838°
Eccentric anomaly253.86462°
Mean motion3.77093 °/min
BSTAR0.0020173
Orbital period95.47 mins
Loading maneuver chart data...
Loading historical data...
Loading historical data...
Loading historical data...
Loading historical data...
Loading historical data...
Loading historical data...
Loading historical data...

STARLINK-1352 Visibility forecast

Observer location: undefined°, undefined

Span
Click to sort rows by Start time (UTC) header in descending order
Start Az.
Max El. time (UTC)
Max El. Az.
Max El.
End time (UTC)
End Az.
7 mins2024-12-26 21:07:12.736Z223.976° SW2024-12-26 21:11:12.736Z121.12° SE44.298°2024-12-26 21:14:12.736Z53.655° ENE
4 mins2024-12-26 22:49:12.736Z302.668° NW2024-12-26 22:51:12.736Z344.253° N20.752°2024-12-26 22:53:12.736Z20.188° NNE
6 mins2024-12-27 03:49:12.736Z314.427° NW2024-12-27 03:52:12.736Z59.995° ENE43.944°2024-12-27 03:55:12.736Z123.526° SE
|